Home   Weather   Brumunddal   Past weeks

Flag for Norway Past Weather in Brumunddal, Norway — Yesterday and Last 2 Weeks

Now
33 °F

Chilly.


Feels Like: 33 °F
Forecast: 21 / 32 °F
Wind: 1 mph from Northeast

Location: Lillehammer-Saetherengen

Current Time: Dec 10, 2016 at 3:57:57 am

Latest Report: Dec 10, 2016 at 2:00 am


Visibility: N/A

Pressure: 29.76 "Hg

Humidity: 95%

Dew Point: 32 °F

Location of BrumunddalLocation

Past Weather in Brumunddal — Graph

°F

Brumunddal Temperature Yesterday

Maximum temperature yesterday: 33 °F (at 10:00 pm)
Minimum temperature yesterday: 25 °F (at 5:00 am)
Average temperature yesterday: 28 °F

High & Low Weather Summary for the Past Weeks

 TemperatureHumidityPressure
High47 °F (Dec 5, 5:00 am)99% (Dec 9, 8:00 am)30.44 "Hg (Dec 9, 8:00 am)
Low14 °F (Dec 7, 4:00 am)49% (Nov 27, 1:00 pm)29.47 "Hg (Nov 26, 3:00 pm)
Average28 °F81%29.97 "Hg
* Reported Nov 25 2:00 am — Dec 10 2:00 am, Brumunddal, Weather by CustomWeather, © 2016

Note: Actual official high and low records may vary slightly from our data, if they occured in-between our weather recording intervals... More about our weather records

Advertising

Brumunddal Weather History for the Previous 24 Hours

Scroll right to see more
 ConditionsComfort  
Time TempWeatherWind HumidityBarometerVisibility
2:00 am
Sat, Dec 10
33 °FChilly.1 mph95%29.76 "HgN/A
1:00 am31 °FChilly.1 mph96%29.78 "HgN/A
12:00 am32 °FChilly.1 mph96%29.78 "HgN/A
11:00 pm
Fri, Dec 9
32 °FChilly.1 mph96%29.79 "HgN/A
10:00 pm33 °FChilly.1 mph95%29.80 "HgN/A
9:00 pm31 °FChilly.2 mph96%29.80 "HgN/A
8:00 pm31 °FChilly.No wind96%29.82 "HgN/A
7:00 pm31 °FChilly.1 mph96%29.82 "HgN/A
4:00 pm28 °FChilly.1 mph96%29.82 "HgN/A
1:00 pm28 °FChilly.1 mph97%29.80 "HgN/A
12:00 pm29 °FChilly.2 mph97%29.77 "HgN/A
11:00 am28 °FChilly.1 mph97%29.76 "HgN/A
10:00 am26 °FChilly.1 mph97%29.73 "HgN/A
9:00 am28 °FChilly.1 mph97%29.73 "HgN/A
8:00 am26 °FChilly.1 mph99%29.71 "HgN/A
7:00 am25 °FChilly.1 mph98%29.69 "HgN/A
6:00 am26 °FChilly.1 mph98%29.69 "HgN/A
5:00 am25 °FChilly.1 mph98%29.69 "HgN/A
4:00 am27 °FChilly.1 mph98%29.68 "HgN/A
Weather by CustomWeather, © 2016

See weather overviewHow to use our weather pages